Regional Weather Roundup
Issued by NWS

Home | Current Version | Previous Version | Graphics & Text | Print | Product List | Glossary On
Versions: 1 2 3 4 5 6 7 8 9 10 11 12 13 14 15 16 17 18 19 20 21 22 23 24 25 26 27 28 29 30 31 32 33 34 35 36 37 38 39 40 41 42 43 44 45 46 47 48 49 50
931
ASUS43 KTOP 192259
RWRKS

WEATHER ROUNDUP FOR KANSAS
NATIONAL WEATHER SERVICE GOODLAND KS
600 PM CDT THU OCT 19 2017

NOTE:  "FAIR" INDICATES FEW OR NO CLOUDS BELOW 12,000 FEET WITH NO
SIGNIFICANT WEATHER AND/OR OBSTRUCTIONS TO VISIBILITY.

KSZ001>006-013>018-027>032-041>047-200000-
NORTHWEST KANSAS

CITY           SKY/WX    TMP DP  RH WIND       PRES   REMARKS
GOODLAND       CLOUDY    75  46  35 S16       29.93F
HAYS           CLEAR     78  44  29 S17       29.96S
HILL CITY      CLEAR     80  41  24 S12       29.94F
RUSSELL        CLEAR     77  42  28 S14       29.96S
$$

KSZ061>065-074>080-084>089-200000-
SOUTHWEST KANSAS

CITY           SKY/WX    TMP DP  RH WIND       PRES   REMARKS
DODGE CITY     CLEAR     77  41  27 S18G26    29.98S
ELKHART          N/A     73  47  39 SE16        N/A
GARDEN CITY    MOSUNNY   77  39  25 S16G24    29.95F
GREAT BEND     PTCLDY    74  46  36 S16       29.99S
LIBERAL        MOSUNNY   76  47  35 S17       29.97S
$$

KSZ066>073-081>083-090>101-200000-
SOUTHEAST KANSAS

CITY           SKY/WX    TMP DP  RH WIND       PRES   REMARKS
CHANUTE        PTCLDY    73  54  51 S10       30.08F
COFFEYVILLE    PTCLDY    72  56  57 S8        30.09S
HUTCHINSON     CLOUDY    76  47  35 S17G23    30.01S
MEDICINE LODGE   N/A     76  41  28 S13G21    30.00S
NEWTON         PTCLDY    75  48  38 S14       30.04S
PARSONS        PTCLDY    73  51  46 S6        30.10S
WICHITA INTL   PTCLDY    75  45  34 S16       30.03S
WICHITA JABRA  CLOUDY    75  48  38 SE16G22   30.03S
WICHITA MCCONL CLEAR     75  44  32 S10       30.04S
WINFIELD       CLEAR     73  52  47 S14       30.06S
$$

KSZ007>012-019>026-033>040-048>060-102>105-200000-
NORTHEAST KANSAS

CITY           SKY/WX    TMP DP  RH WIND       PRES   REMARKS
CONCORDIA      CLEAR     77  48  35 S15       29.97S
EMPORIA        PTCLDY    73  51  46 S14       30.04S
LAWRENCE       CLEAR     74  55  51 SE6       30.04S
MANHATTAN      CLEAR     80  49  33 S10       30.00R
OLATHE IND     CLOUDY    73  54  51 S8        30.07S
OLATHE EXE     CLEAR     71  54  54 S7        30.07S
SALINA         CLEAR     77  49  37 S14       29.99S
TOPEKA BILLARD PTCLDY    77  53  43 SE7       30.03S
TOPEKA FORBES  CLOUDY    77  53  43 S12       30.03S
$$




USA.gov is the U.S. government's official web portal to all federal, state and local government web resources and services.